CZ-6A DEB

Satellite information

Favourite Embed

Satellite Type and Status

DEBRISIN ORBIT

Key statistics

Satellite CZ-6A DEB at a glance.

Uptime

914

Days in orbit

Revolutions

≈ 14.7

Per day

Orbit

SSO

Sun Synchronous Orbit

Inclination

98.7

Latest

Satellite identification and parameters

Extended collection of information and parameters for CZ-6A DEB.

Object identification

Identified? True

Debris? True

Object name: CZ-6A DEB

International designator: 2022-151HP

Object number (NORAD): 54487

Object ID (CCSDS): 54487

Country: PEOPLES REPUBLIC OF CHINA (PRC)

Current information (Y/N): Y

RCS size: SMALL

Orbital parameters

Period: 98.041 minutes

Inclination: 98.6644 deg

SMA: 7043.116 km

Apoapsis: 714.456 km

Periapsis: 615.506 km

RAAN: 176.2747 deg

Eccentricy: 0.0070246

Argument of periapsis: 84.9288 deg

Mean anomaly: 275.9929 deg

Mean motion: 14.68775869 rev/day

Mean motion (dot): 0.00024172 rev/day2

B* drag term: 0.0039882 1/REarth

Two-line elements (TLE)

Creation date: May 12, 2025, 2:31 a.m.

Reference frame: TEME

Reference center: EARTH

Epoch: May 11, 2025, 2:49 p.m. UTC

TLE line 0: 0 CZ-6A DEB

TLE line 1: 1 54487U 22151HP 25131.61753962 .00024172 00000-0 39882-2 0 9998

TLE line 2: 2 54487 98.6644 176.2747 0070246 84.9288 275.9929 14.68775869129599

Live tracking on map

Real-time ground track for satellite CZ-6A DEB.

In-orbit conjunctions

A list of the most updated potential collisions computed for object CZ-6A DEB.

Target Orbit TCA Probability of collision Miss distance Type
DELTA 1 R/B SSO 2025-02-27 10:00:48 0.0003340082 424.0 (m) ROCKET BODY
ATLAS 5 CENTAUR R/B SSO 2024-06-24 05:39:43 0.00010543 598.0 (m) ROCKET BODY

Associated space launch

Chinese satellite reported for atmospheric/ocean/environmental/spatial parameter research purposes, details TBD.

CZ-6A DEB was lifted into orbit during the mission ‘Long March 6A | Yunhai 3’, on board a Long March 6A space rocket.

The launch took place on Nov. 11, 2022, 10:52 p.m. from Launch Complex 9A.

For more information about the launch, click the button.

Launch to space Long March 6A | Yunhai 3
Long March 6A | Yunhai 3

Agency: N/A

Status: Launch Successful

Launch date: Nov. 11, 2022, 10:52 p.m. UTC

Rocket: Long March 6A

Launch pad: Launch Complex 9A

Location: Taiyuan Satellite Launch Center, People's Republic of China

...

Latest news about this satellite

There are no fresh news available about this satellite. Check back as we update our databases every day.


Newsletter sign-up

Weekly statistics, charts and insights to help you stay on top of the space industry.